Luverne, MN

8:12 AM CST on December 18, 2017 (GMT -0600)
Luverne

Weather History for KLYV - November, 2012

Change the Weather History Date:

Sunday, November 11, 2012

  Actual Average (KPQN) Record (KPQN)
Temperature  
Mean Temperature 26 °F -  
Max Temperature 33 °F 42 °F 66 °F (2005)
Min Temperature 19 °F 24 °F 5 °F (1999)
Degree Days  
Heating Degree Days 39    
Moisture  
Dew Point 17 °F    
Average Humidity 71    
Maximum Humidity 93    
Minimum Humidity 55    
Precipitation  
Precipitation 0.00 in - - ()
Sea Level Pressure  
Sea Level Pressure 29.89 in    
Wind  
Wind Speed 19 mph (WNW)    
Max Wind Speed 28 mph    
Max Gust Speed 34 mph    
Visibility 10 miles    
Events Snow    
Averages and records for this station are not official NWS values.
T = Trace of Precipitation, MM = Missing Value Source: NWS Daily Summary

Daily Weather History Graph

Daily Weather History Graph

Search for Another Location

Airport or City:

Trip Planner

Search our weather history database for the weather conditions in past years. The results will help you decide how hot, cold, wet, or windy it might be!

Date:

Astronomy

Nov. 11, 2012 Rise Set
Actual Time 7:14 AM CST 5:03 PM CST
Civil Twilight 6:43 AM CST 5:33 PM CST
Nautical Twilight 6:09 AM CST 6:08 PM CST
Astronomical Twilight 5:35 AM CST 6:41 PM CST
Moon 4:25 AM CST (11/11) 3:30 PM CST (11/11)
Length of Visible Light 10h 50m
Length of Day
9h 48m
Waning Crescent, 7% of the Moon is Illuminated
Nov 11
Waning Crescent
Nov 13
New
Nov 20
First Quarter
Nov 28
Full
Dec 6
Last Quarter

Hourly Weather History & Observations

Time (CST) Temp. Windchill Dew Point Humidity Pressure Visibility Wind Dir Wind Speed Gust Speed Precip Events Conditions
12:14 AM 33.8 °F 22.8 °F 32.0 °F 93% 29.67 in 10.0 mi WNW 18.4 mph 21.9 mph N/A   Overcast
12:34 AM 32.0 °F 19.5 °F 30.2 °F 93% 29.68 in 10.0 mi NW 21.9 mph 27.6 mph N/A   Overcast
12:54 AM 32.0 °F 20.8 °F 30.2 °F 93% 29.68 in 10.0 mi NW 17.3 mph 26.5 mph N/A   Overcast
1:14 AM 32.0 °F 19.5 °F 28.4 °F 87% 29.68 in 10.0 mi NW 21.9 mph 29.9 mph N/A   Overcast
1:35 AM 32.0 °F 20.1 °F 28.4 °F 87% 29.67 in 10.0 mi NW 19.6 mph 28.8 mph N/A   Overcast
1:54 AM 32.0 °F 19.5 °F 28.4 °F 87% 29.71 in 10.0 mi NW 21.9 mph 26.5 mph N/A   Overcast
2:15 AM 32.0 °F 20.1 °F 26.6 °F 80% 29.71 in 10.0 mi NW 19.6 mph 28.8 mph N/A   Overcast
2:34 AM 32.0 °F 20.5 °F 26.6 °F 80% 29.72 in 10.0 mi NW 18.4 mph 25.3 mph N/A   Overcast
2:54 AM 30.2 °F 17.8 °F 26.6 °F 86% 29.72 in 10.0 mi NW 19.6 mph 26.5 mph N/A   Overcast
3:14 AM 30.2 °F 16.8 °F 26.6 °F 86% 29.75 in 10.0 mi WNW 23.0 mph 29.9 mph N/A   Overcast
3:35 AM 28.4 °F 15.4 °F 24.8 °F 86% 29.75 in 10.0 mi NW 19.6 mph 25.3 mph N/A   Overcast
3:54 AM 28.4 °F 14.4 °F 23.0 °F 80% 29.77 in 10.0 mi WNW 23.0 mph 26.5 mph N/A   Overcast
4:14 AM 28.4 °F 15.1 °F 23.0 °F 80% 29.77 in 10.0 mi NW 20.7 mph 27.6 mph N/A   Overcast
4:35 AM 28.4 °F 14.7 °F 23.0 °F 80% 29.78 in 10.0 mi WNW 21.9 mph 29.9 mph N/A   Overcast
4:54 AM 28.4 °F 15.1 °F 23.0 °F 80% 29.79 in 10.0 mi WNW 20.7 mph 28.8 mph N/A   Overcast
5:35 AM 26.6 °F 13.1 °F 21.2 °F 80% 29.80 in 10.0 mi NW 19.6 mph 25.3 mph N/A   Overcast
5:54 AM 26.6 °F 14.7 °F 21.2 °F 80% 29.81 in 10.0 mi WNW 15.0 mph 24.2 mph N/A   Overcast
6:15 AM 26.6 °F 13.4 °F 19.4 °F 74% 29.81 in 10.0 mi NW 18.4 mph 24.2 mph N/A   Overcast
6:35 AM 26.6 °F 13.8 °F 19.4 °F 74% 29.83 in 10.0 mi NW 17.3 mph 27.6 mph N/A   Overcast
6:54 AM 26.6 °F 13.8 °F 19.4 °F 74% 29.80 in 10.0 mi NW 17.3 mph 24.2 mph N/A   Overcast
7:35 AM 24.8 °F 10.7 °F 17.6 °F 74% 29.85 in 10.0 mi NW 19.6 mph 26.5 mph N/A   Overcast
8:15 AM 23.0 °F 8.3 °F 17.6 °F 80% 29.87 in 10.0 mi NW 19.6 mph 27.6 mph N/A   Overcast
8:35 AM 23.0 °F 9.2 °F 15.8 °F 74% 29.88 in 10.0 mi NW 17.3 mph 28.8 mph N/A   Overcast
8:54 AM 23.0 °F 8.0 °F 15.8 °F 74% 29.87 in 10.0 mi NW 20.7 mph 26.5 mph N/A   Overcast
9:15 AM 23.0 °F 8.3 °F 14.0 °F 68% 29.89 in 10.0 mi NW 19.6 mph 26.5 mph N/A   Scattered Clouds
9:34 AM 23.0 °F 8.3 °F 17.6 °F 80% 29.89 in 10.0 mi WNW 19.6 mph - N/A   Scattered Clouds
9:54 AM 23.0 °F 8.3 °F 15.8 °F 74% 29.90 in 10.0 mi NW 19.6 mph - N/A   Scattered Clouds
10:15 AM 23.0 °F 8.3 °F 14.0 °F 68% 29.91 in 10.0 mi WNW 19.6 mph 24.2 mph N/A   Scattered Clouds
10:34 AM 24.8 °F 10.3 °F 17.6 °F 74% 29.90 in 10.0 mi NW 20.7 mph 26.5 mph N/A   Scattered Clouds
10:55 AM 24.8 °F 9.6 °F 15.8 °F 69% 29.92 in 10.0 mi WNW 23.0 mph 28.8 mph N/A   Scattered Clouds
11:15 AM 24.8 °F 11.1 °F 14.0 °F 64% 29.92 in 10.0 mi NW 18.4 mph - N/A   Clear
11:34 AM 26.6 °F 12.7 °F 14.0 °F 59% 29.90 in 10.0 mi WNW 20.7 mph 28.8 mph N/A   Clear
12:15 PM 26.6 °F 12.4 °F 14.0 °F 59% 29.90 in 10.0 mi NW 21.9 mph 27.6 mph N/A   Clear
12:34 PM 26.6 °F 12.7 °F 14.0 °F 59% 29.89 in 10.0 mi NW 20.7 mph 25.3 mph N/A   Scattered Clouds
12:55 PM 26.6 °F 11.7 °F 14.0 °F 59% 29.90 in 10.0 mi WNW 24.2 mph 28.8 mph N/A   Scattered Clouds
1:15 PM 26.6 °F 12.0 °F 14.0 °F 59% 29.89 in 10.0 mi WNW 23.0 mph 26.5 mph N/A   Scattered Clouds
1:34 PM 26.6 °F 13.4 °F 14.0 °F 59% 29.90 in 10.0 mi WNW 18.4 mph 23.0 mph N/A   Scattered Clouds
1:55 PM 26.6 °F 12.7 °F 14.0 °F 59% 29.91 in 10.0 mi WNW 20.7 mph - N/A   Scattered Clouds
2:14 PM 26.6 °F 12.7 °F 14.0 °F 59% 29.90 in 10.0 mi WNW 20.7 mph 26.5 mph N/A   Scattered Clouds
2:34 PM 26.6 °F 11.7 °F 14.0 °F 59% 29.91 in 10.0 mi West 24.2 mph 27.6 mph N/A   Clear
2:55 PM 26.6 °F 12.0 °F 12.2 °F 55% 29.91 in 10.0 mi WNW 23.0 mph 29.9 mph N/A   Clear
3:14 PM 26.6 °F 12.7 °F 12.2 °F 55% 29.91 in 10.0 mi WNW 20.7 mph 24.2 mph N/A   Clear
3:34 PM 26.6 °F 12.4 °F 12.2 °F 55% 29.92 in 10.0 mi WNW 21.9 mph 26.5 mph N/A   Clear
3:55 PM 26.6 °F 11.7 °F 14.0 °F 59% 29.92 in 10.0 mi WNW 24.2 mph 29.9 mph N/A   Clear
4:14 PM 26.6 °F 12.7 °F 14.0 °F 59% 29.93 in 10.0 mi WNW 20.7 mph 28.8 mph N/A   Clear
4:34 PM 24.8 °F 8.4 °F 12.2 °F 59% 29.93 in 10.0 mi WNW 27.6 mph 34.5 mph N/A   Clear
4:55 PM 23.0 °F 6.9 °F 12.2 °F 63% 29.95 in 10.0 mi WNW 24.2 mph - N/A   Clear
5:14 PM 23.0 °F 6.9 °F 10.4 °F 59% 29.96 in 10.0 mi WNW 24.2 mph 31.1 mph N/A   Clear
5:35 PM 23.0 °F 7.6 °F 10.4 °F 59% 29.97 in 10.0 mi WNW 21.9 mph 27.6 mph N/A   Clear
5:54 PM 23.0 °F 8.0 °F 10.4 °F 59% 29.98 in 10.0 mi WNW 20.7 mph 27.6 mph N/A   Clear
6:15 PM 21.2 °F 7.3 °F 12.2 °F 68% 29.99 in 10.0 mi WNW 16.1 mph 20.7 mph N/A   Clear
6:34 PM 21.2 °F 7.3 °F 12.2 °F 68% 30.00 in 10.0 mi WNW 16.1 mph - N/A   Clear
6:54 PM 21.2 °F 10.1 °F 12.2 °F 68% 30.01 in 10.0 mi West 10.4 mph - N/A   Clear
7:14 PM 19.4 °F 10.4 °F 12.2 °F 74% 30.01 in 10.0 mi West 6.9 mph - N/A   Clear
7:34 PM 19.4 °F 8.6 °F 12.2 °F 74% 30.01 in 10.0 mi West 9.2 mph - N/A   Clear
7:55 PM 19.4 °F 7.2 °F 12.2 °F 74% 30.01 in 10.0 mi West 11.5 mph - N/A   Clear
8:14 PM 19.4 °F 6.6 °F 12.2 °F 74% 30.02 in 10.0 mi West 12.7 mph - N/A   Scattered Clouds
8:34 PM 21.2 °F 8.3 °F 14.0 °F 74% 30.02 in 10.0 mi West 13.8 mph - N/A   Overcast
8:55 PM 21.2 °F 6.8 °F 14.0 °F 74% 30.02 in 3.0 mi West 17.3 mph 20.7 mph N/A   Haze
9:14 PM 21.2 °F 7.3 °F 14.0 °F 74% 30.02 in 10.0 mi West 16.1 mph - N/A   Overcast
9:35 PM 21.2 °F 7.8 °F 14.0 °F 74% 30.02 in 10.0 mi West 15.0 mph 21.9 mph N/A   Overcast
9:55 PM 21.2 °F 7.3 °F 14.0 °F 74% 30.02 in 10.0 mi West 16.1 mph 24.2 mph N/A   Overcast
10:14 PM 23.0 °F 9.2 °F 14.0 °F 68% 30.03 in 10.0 mi WNW 17.3 mph 23.0 mph N/A   Overcast
10:35 PM 23.0 °F 8.7 °F 14.0 °F 68% 30.02 in 10.0 mi WNW 18.4 mph 23.0 mph N/A Snow Light Snow
10:55 PM 23.0 °F 10.6 °F 15.8 °F 74% 30.02 in 4.0 mi West 13.8 mph 20.7 mph N/A Snow Light Snow
11:14 PM 23.0 °F 8.0 °F 14.0 °F 68% 30.02 in 7.0 mi West 20.7 mph 27.6 mph N/A Snow Light Snow
11:35 PM 21.2 °F 7.3 °F 12.2 °F 68% 30.03 in 10.0 mi West 16.1 mph - N/A   Scattered Clouds
11:54 PM 21.2 °F 8.3 °F 12.2 °F 68% 30.03 in 10.0 mi West 13.8 mph - N/A   Clear